QPF
0.00 0.00 0.00 0.00 0.00 0.00 0.00 0.00 0.00 0.00 0.00 0.00 0.00 0.00 0.00 0.00 0.00 0.00 0.00 0.00 0.00 0.00 0.00 0.00 0.00 0.00 0.00 0.00 0.00 0.00 0.00 0.03 0.03 0.00 0.00 0.00 0.00 0.00 0.00 0.00 0.00 0.01 0.00 0.00
0.00 0.00 0.00 0.00 0.00 0.00 0.00 0.00 0.00 0.00 0.00 0.00 0.00 0.00 0.00 0.00 0.00 0.00 0.00 0.00 0.00 0.00 0.00 0.00 0.00 0.00 0.00 0.00 0.00 0.00 0.00 0.01 0.01 0.00 0.00 0.00 0.00 0.00 0.00 0.00 0.00 0.00 0.00 0.00
0.00 0.00 0.00 0.00 0.00 0.00 0.00 0.00 0.00 0.00 0.00 0.00 0.00 0.00 0.00 0.00 0.00 0.00 0.00 0.00 0.00 0.00 0.00 0.00 0.00 0.00 0.00 0.00 0.00 0.00 0.00 0.00 0.00 0.00 0.00 0.00 0.01 0.00 0.00 0.00 0.00 0.00 0.00 0.00
0.00 0.00 0.00 0.00 0.00 0.00 0.00 0.00 0.00 0.00 0.00 0.00 0.00 0.00 0.00 0.00 0.00 0.00 0.00 0.00 0.00 0.00 0.00 0.00 0.00 0.00 0.00 0.00 0.00 0.00 0.00 0.00 0.00 0.00 0.00 0.00 0.00 0.00 0.02 0.00 0.00 0.00 0.00 0.00
0.00 0.00 0.00 0.00 0.00 0.00 0.00 0.00 0.00 0.00 0.00 0.00 0.00 0.00 0.00 0.00 0.00 0.00 0.00 0.00 0.00 0.00 0.00 0.00 0.00 0.00 0.00 0.02 0.00 0.00 0.01 0.00 0.00 0.00 0.00 0.00 0.00 0.00 0.01 0.00 0.00 0.00 0.00 0.00
0.00 0.00 0.00 0.00 0.00 0.00 0.00 0.00 0.00 0.00 0.00 0.00 0.00 0.00 0.00 0.00 0.00 0.00 0.00 0.00 0.00 0.00 0.00 0.00 0.00 0.00 0.00 0.00 0.00 0.00 0.00 0.00 0.00 0.00 0.00 0.00 0.02 0.03 0.01 0.00 0.00 0.00 0.00 0.00
0.00 0.00 0.00 0.00 0.00 0.00 0.00 0.00 0.00 0.00 0.00 0.00 0.00 0.00 0.00 0.00 0.00 0.00 0.00 0.00 0.00 0.00 0.00 0.00 0.00 0.00 0.00 0.00 0.00 0.00 0.00 0.00 0.00 0.00 0.00 0.01 0.02 0.09 0.06 0.04 0.00 0.01 0.00 0.00
0.00 0.00 0.00 0.00 0.00 0.00 0.00 0.00 0.00 0.00 0.00 0.00 0.00 0.00 0.00 0.00 0.00 0.00 0.00 0.00 0.00 0.00 0.00 0.00 0.00 0.00 0.00 0.00 0.00 0.00 0.00 0.00 0.00 0.00 0.00 0.00 0.01 0.01 0.02 0.01 0.02 0.03 0.08 0.01
0.00 0.00 0.00 0.00 0.00 0.00 0.00 0.00 0.00 0.00 0.00 0.00 0.00 0.00 0.00 0.00 0.00 0.00 0.00 0.00 0.00 0.00 0.00 0.00 0.00 0.00 0.00 0.00 0.00 0.00 0.00 0.00 0.00 0.00 0.00 0.00 0.00 0.01 0.00 0.01 0.10 0.03 0.03 0.01
0.00 0.00 0.00 0.00 0.00 0.00 0.00 0.00 0.00 0.00 0.00 0.00 0.00 0.00 0.00 0.00 0.00 0.00 0.00 0.00 0.00 0.00 0.00 0.00 0.00 0.00 0.00 0.00 0.00 0.00 0.00 0.00 0.00 0.00 0.00 0.00 0.00 0.00 0.02 0.09 0.06 0.05 0.02 0.03
0.00 0.00 0.00 0.00 0.00 0.00 0.00 0.00 0.00 0.00 0.00 0.00 0.00 0.00 0.00 0.00 0.00 0.00 0.00 0.00 0.00 0.00 0.00 0.00 0.00 0.00 0.00 0.00 0.00 0.00 0.00 0.00 0.00 0.00 0.00 0.00 0.00 0.00 0.01 0.04 0.06 0.05 0.08 0.11
0.00 0.00 0.00 0.00 0.00 0.00 0.00 0.00 0.00 0.00 0.00 0.00 0.00 0.00 0.00 0.00 0.00 0.00 0.00 0.00 0.00 0.00 0.00 0.00 0.00 0.00 0.00 0.00 0.00 0.00 0.00 0.00 0.00 0.00 0.00 0.00 0.00 0.00 0.00 0.02 0.07 0.13 0.06 0.08
0.00 0.00 0.00 0.00 0.00 0.00 0.00 0.00 0.00 0.00 0.00 0.00 0.00 0.00 0.00 0.00 0.00 0.00 0.00 0.00 0.00 0.00 0.00 0.00 0.00 0.00 0.00 0.00 0.00 0.00 0.00 0.00 0.00 0.00 0.00 0.00 0.00 0.00 0.00 0.00 0.02 0.06 0.07 0.04
0.00 0.00 0.00 0.00 0.00 0.00 0.00 0.00 0.00 0.00 0.00 0.00 0.00 0.00 0.00 0.00 0.00 0.00 0.00 0.00 0.00 0.00 0.00 0.00 0.00 0.00 0.00 0.00 0.00 0.00 0.00 0.00 0.00 0.00 0.03 0.03 0.01 0.01 0.00 0.00 0.00 0.01 0.05 0.06
0.00 0.00 0.00 0.00 0.00 0.00 0.00 0.00 0.00 0.00 0.00 0.00 0.00 0.00 0.00 0.00 0.00 0.00 0.00 0.00 0.00 0.00 0.00 0.00 0.00 0.00 0.00 0.00 0.00 0.00 0.00 0.00 0.02 0.01 0.08 0.07 0.04 0.04 0.03 0.01 0.00 0.01 0.02 0.04
0.00 0.00 0.00 0.00 0.00 0.00 0.00 0.00 0.00 0.00 0.00 0.00 0.00 0.00 0.00 0.00 0.00 0.00 0.00 0.00 0.00 0.00 0.00 0.00 0.00 0.00 0.00 0.00 0.00 0.00 0.01 0.02 0.09 0.09 0.07 0.09 0.10 0.05 0.05 0.03 0.00 0.01 0.03 0.06
0.00 0.00 0.00 0.00 0.00 0.00 0.00 0.00 0.00 0.00 0.00 0.00 0.00 0.00 0.00 0.00 0.00 0.00 0.00 0.00 0.00 0.00 0.00 0.00 0.00 0.00 0.00 0.00 0.00 0.02 0.06 0.08 0.08 0.09 0.09 0.12 0.12 0.08 0.05 0.03 0.00 0.00 0.02 0.05
0.00 0.00 0.00 0.00 0.00 0.00 0.00 0.00 0.00 0.00 0.00 0.00 0.00 0.00 0.00 0.00 0.00 0.00 0.00 0.00 0.00 0.00 0.00 0.00 0.00 0.00 0.00 0.00 0.01 0.04 0.06 0.07 0.04 0.07 0.11 0.15 0.13 0.10 0.12 0.10 0.02 0.00 0.00 0.01
0.00 0.00 0.00 0.00 0.00 0.00 0.00 0.00 0.00 0.00 0.00 0.00 0.00 0.00 0.00 0.00 0.00 0.00 0.00 0.00 0.00 0.00 0.00 0.00 0.00 0.00 0.00 0.00 0.05 0.05 0.04 0.03 0.01 0.00 0.01 0.06 0.03 0.02 0.08 0.13 0.13 0.08 0.04 0.03
0.00 0.00 0.00 0.00 0.00 0.00 0.00 0.00 0.00 0.00 0.00 0.00 0.00 0.00 0.00 0.00 0.00 0.00 0.00 0.00 0.00 0.00 0.00 0.00 0.00 0.00 0.00 0.01 0.05 0.05 0.01 0.00 0.01 0.02 0.04 0.09 0.10 0.05 0.05 0.07 0.07 0.04 0.05 0.08
0.00 0.00 0.00 0.00 0.00 0.00 0.00 0.00 0.00 0.00 0.00 0.00 0.00 0.00 0.00 0.00 0.00 0.00 0.00 0.00 0.00 0.00 0.00 0.00 0.00 0.00 0.01 0.04 0.10 0.05 0.05 0.01 0.03 0.09 0.11 0.08 0.07 0.05 0.04 0.06 0.05 0.03 0.03 0.16
0.00 0.00 0.00 0.00 0.00 0.00 0.00 0.00 0.00 0.00 0.00 0.00 0.00 0.00 0.00 0.00 0.00 0.00 0.00 0.00 0.00 0.00 0.00 0.00 0.01 0.01 0.05 0.09 0.12 0.11 0.08 0.07 0.01 0.02 0.06 0.07 0.05 0.01 0.02 0.03 0.08 0.09 0.03 0.12
0.00 0.00 0.00 0.00 0.00 0.00 0.00 0.00 0.00 0.00 0.00 0.00 0.00 0.00 0.00 0.00 0.00 0.00 0.00 0.00 0.00 0.00 0.00 0.00 0.03 0.07 0.14 0.18 0.12 0.05 0.02 0.01 0.03 0.05 0.07 0.06 0.07 0.03 0.02 0.03 0.08 0.14 0.12 0.02
0.00 0.00 0.00 0.00 0.00 0.00 0.00 0.00 0.00 0.00 0.00 0.00 0.00 0.00 0.00 0.00 0.00 0.00 0.00 0.00 0.00 0.00 0.00 0.00 0.03 0.09 0.18 0.19 0.09 0.00 0.00 0.00 0.03 0.08 0.07 0.06 0.05 0.03 0.04 0.03 0.03 0.03 0.05 0.07
0.00 0.00 0.00 0.00 0.00 0.00 0.00 0.00 0.00 0.00 0.00 0.00 0.00 0.00 0.00 0.00 0.00 0.00 0.00 0.00 0.00 0.00 0.00 0.01 0.07 0.12 0.21 0.16 0.05 0.00 0.00 0.00 0.01 0.04 0.03 0.03 0.01 0.03 0.03 0.01 0.00 0.00 0.00 0.00
0.00 0.00 0.00 0.00 0.00 0.00 0.00 0.00 0.00 0.00 0.00 0.00 0.00 0.00 0.00 0.00 0.00 0.00 0.00 0.00 0.00 0.00 0.01 0.02 0.03 0.08 0.11 0.07 0.01 0.01 0.01 0.01 0.01 0.01 0.02 0.02 0.00 0.00 0.00 0.00 0.00 0.00 0.00 0.00
MSLP
1001.07 1000.57 999.24 998.16 998.50 998.66 998.58 998.09 997.66 997.32 997.95 998.28 997.70 998.07 998.41 998.71 998.73 999.63 1000.05 1000.17 1000.43 1000.78 1001.69 1002.91 1003.63 1004.57 1005.61 1006.92 1008.09 1009.10 1010.14 1011.09 1011.81 1012.27 1012.60 1012.71 1012.77 1012.82 1012.84 1012.52 1012.77 1013.58 1014.18 1014.60
1000.07 999.27 998.59 998.88 999.19 999.14 998.86 998.42 997.70 997.50 997.95 998.39 997.66 997.68 998.21 998.82 999.29 999.83 1000.56 1000.74 1001.11 1001.84 1002.79 1003.66 1004.24 1004.87 1005.61 1006.83 1008.07 1009.13 1009.96 1010.76 1011.42 1011.75 1012.09 1012.25 1012.42 1012.50 1012.51 1012.33 1012.06 1012.64 1013.34 1013.97
999.32 998.66 999.06 999.33 999.16 998.91 998.56 998.37 997.87 997.97 997.96 997.87 997.85 997.54 998.01 998.89 999.45 1000.11 1001.17 1001.97 1002.31 1002.70 1003.30 1004.14 1004.73 1005.29 1005.70 1006.81 1007.99 1008.98 1009.72 1010.27 1010.87 1011.16 1011.62 1012.00 1012.09 1012.17 1012.19 1012.29 1012.26 1011.99 1012.50 1013.15
998.96 998.82 999.28 999.29 998.76 998.83 998.20 998.50 998.81 998.76 998.49 997.55 997.59 997.75 997.46 998.43 999.04 999.77 1000.79 1001.84 1002.96 1003.97 1004.43 1004.68 1004.99 1005.44 1005.88 1006.61 1007.56 1008.36 1009.19 1009.89 1010.41 1010.79 1011.04 1011.17 1011.61 1011.72 1011.66 1011.74 1011.90 1011.66 1011.39 1011.99
998.66 998.84 999.06 999.01 998.80 999.45 999.14 999.47 999.28 999.04 998.73 998.26 997.52 997.21 997.58 998.14 998.66 999.36 1000.33 1001.56 1002.77 1003.61 1004.55 1005.19 1005.59 1005.98 1006.34 1007.04 1007.23 1007.96 1008.61 1009.36 1009.83 1010.21 1010.78 1010.76 1011.07 1011.43 1011.65 1011.55 1011.25 1011.32 1011.73 1011.97
999.07 998.98 999.45 999.30 999.37 999.82 999.85 999.79 999.38 998.99 998.36 997.82 997.28 997.07 997.76 998.28 998.78 999.66 1000.62 1001.71 1002.78 1003.57 1004.52 1005.60 1006.25 1006.58 1006.80 1007.24 1007.57 1007.94 1008.46 1008.87 1009.20 1009.56 1010.01 1010.41 1010.54 1011.08 1011.29 1010.99 1010.66 1011.01 1011.38 1012.09
998.42 998.48 998.74 999.64 999.58 999.48 999.75 999.54 998.82 998.10 998.07 997.89 998.04 997.99 998.18 998.78 999.53 1000.14 1000.86 1001.79 1002.72 1003.30 1004.03 1004.89 1005.81 1006.52 1007.01 1007.33 1007.76 1008.09 1008.50 1008.74 1008.76 1009.08 1009.35 1009.72 1009.95 1010.26 1010.38 1010.41 1009.96 1010.38 1011.03 1010.43
997.99 997.48 998.06 998.94 999.65 999.69 999.55 999.88 999.99 999.29 998.62 998.62 998.53 998.20 998.47 999.09 999.86 1000.69 1001.30 1001.93 1002.68 1003.17 1004.22 1004.91 1005.49 1006.36 1006.91 1007.31 1007.63 1007.93 1008.24 1008.65 1008.71 1008.67 1008.69 1008.93 1009.13 1009.27 1009.43 1009.55 1009.60 1009.61 1010.07 1010.05
998.58 998.12 998.56 999.27 999.69 1000.25 999.98 1000.31 1000.23 1000.29 1000.07 999.62 998.73 998.48 999.31 999.66 1000.20 1000.83 1001.34 1002.05 1002.83 1003.75 1004.50 1005.13 1005.65 1006.13 1006.56 1007.06 1007.34 1007.74 1007.96 1008.31 1008.40 1008.36 1008.26 1008.22 1008.22 1008.37 1008.38 1008.41 1008.70 1008.72 1008.91 1009.28
999.53 999.30 998.86 999.10 1000.26 1000.46 1000.62 1000.86 1000.91 1000.64 1000.32 999.86 998.82 999.06 999.52 1000.07 1000.36 1000.89 1001.80 1002.43 1003.37 1004.15 1004.73 1005.30 1005.82 1006.11 1006.41 1006.75 1007.09 1007.24 1007.44 1007.71 1007.90 1007.94 1007.77 1007.70 1007.52 1007.50 1007.53 1007.74 1007.69 1007.77 1008.00 1008.11
1000.08 999.91 999.56 999.67 999.91 999.98 1000.23 1000.65 1000.84 1000.72 1000.91 1000.69 1000.27 999.69 1000.03 1000.54 1000.91 1001.50 1002.16 1002.80 1003.59 1004.46 1005.09 1005.59 1005.89 1006.22 1006.55 1006.75 1006.77 1006.91 1007.12 1007.28 1007.41 1007.53 1007.51 1007.38 1007.23 1007.18 1007.09 1007.01 1006.77 1006.98 1007.25 1007.40
1000.70 1000.38 1000.08 999.92 999.42 999.73 1000.20 1000.58 1001.16 1001.57 1001.74 1001.11 1000.95 1000.18 1000.24 1000.76 1001.31 1001.84 1002.23 1003.02 1003.73 1004.44 1005.34 1006.01 1006.40 1006.63 1006.74 1006.90 1007.03 1007.08 1006.96 1007.04 1007.12 1007.05 1007.03 1007.00 1006.93 1006.85 1006.65 1006.47 1006.30 1006.43 1006.45 1006.49
1001.84 1001.43 1001.14 1000.64 1000.16 999.75 1000.12 1001.04 1001.51 1001.78 1002.02 1001.92 1001.83 1001.09 1000.44 1000.82 1001.30 1001.98 1002.54 1003.27 1004.12 1004.92 1005.58 1006.15 1006.57 1006.81 1006.89 1007.12 1007.21 1007.20 1007.10 1006.88 1006.90 1006.62 1006.52 1006.44 1006.41 1006.54 1006.40 1006.27 1005.90 1005.56 1005.67 1005.69
1003.11 1002.84 1002.73 1002.01 1000.96 1001.24 1000.90 1001.03 1001.34 1001.79 1001.94 1001.81 1001.42 1000.83 1000.82 1001.18 1001.84 1002.60 1003.34 1004.06 1004.71 1005.22 1005.68 1006.25 1006.62 1006.90 1006.90 1006.98 1007.02 1007.10 1007.16 1007.13 1007.07 1007.03 1006.86 1006.44 1006.38 1006.27 1006.18 1006.01 1005.78 1005.41 1004.96 1004.84
1003.69 1003.64 1003.49 1002.83 1002.27 1001.82 1001.49 1001.32 1001.38 1001.52 1001.73 1001.81 1001.62 1001.48 1001.51 1001.86 1002.53 1003.35 1004.02 1004.47 1004.84 1005.26 1005.89 1006.36 1006.67 1006.97 1006.94 1006.86 1006.84 1006.85 1006.86 1006.94 1007.12 1007.01 1006.61 1006.44 1006.28 1005.97 1005.89 1005.62 1005.50 1005.26 1004.86 1004.20
1003.65 1003.68 1003.88 1003.68 1003.35 1002.73 1002.09 1001.77 1001.67 1001.63 1001.72 1001.71 1001.82 1001.70 1001.85 1002.34 1003.01 1003.77 1004.48 1004.86 1005.35 1005.79 1006.14 1006.48 1006.88 1007.09 1007.12 1006.98 1006.81 1006.74 1006.79 1006.99 1007.16 1007.01 1006.62 1006.42 1006.03 1005.70 1005.49 1005.33 1005.22 1005.04 1004.42 1003.97
1003.57 1004.03 1004.29 1003.99 1003.71 1003.23 1002.46 1001.85 1001.34 1001.20 1001.33 1001.61 1001.66 1001.91 1002.22 1002.97 1003.85 1004.46 1004.93 1005.47 1005.79 1005.96 1006.14 1006.53 1006.83 1007.01 1006.94 1006.74 1006.59 1006.50 1006.76 1007.02 1006.99 1006.73 1006.25 1006.00 1005.75 1005.33 1005.19 1004.90 1004.70 1004.61 1004.13 1003.63
1003.98 1004.75 1005.15 1004.84 1004.74 1003.58 1002.56 1001.68 1001.15 1001.04 1001.48 1001.87 1002.18 1002.65 1002.88 1003.47 1004.16 1004.68 1005.19 1005.81 1006.16 1006.40 1006.63 1006.75 1006.75 1006.71 1006.57 1006.26 1006.09 1006.26 1006.48 1006.85 1006.67 1006.28 1006.01 1005.79 1005.39 1005.08 1004.76 1004.46 1004.22 1004.14 1003.88 1003.46
1003.81 1004.45 1004.81 1004.92 1004.45 1003.54 1002.69 1001.75 1001.64 1001.81 1002.03 1002.61 1003.15 1003.45 1003.56 1003.87 1004.39 1005.08 1005.74 1006.08 1006.34 1006.38 1006.54 1006.65 1006.64 1006.47 1006.23 1006.20 1006.09 1006.32 1006.33 1006.48 1006.42 1006.17 1005.87 1005.82 1005.46 1004.91 1004.47 1004.26 1003.76 1003.70 1003.61 1003.31
1003.48 1004.17 1005.12 1005.12 1004.74 1003.87 1002.80 1002.12 1002.57 1002.98 1003.10 1003.49 1004.13 1004.46 1004.73 1005.07 1005.24 1005.41 1006.00 1005.83 1005.89 1006.10 1006.18 1006.18 1006.14 1006.06 1005.95 1005.77 1005.87 1006.03 1006.11 1006.22 1006.52 1006.52 1006.30 1005.97 1005.55 1004.97 1004.26 1003.78 1003.57 1003.39 1003.21 1002.91
1003.10 1003.85 1004.55 1004.73 1004.48 1004.11 1003.20 1002.57 1003.13 1003.86 1004.63 1004.64 1005.01 1005.34 1005.61 1005.78 1006.29 1006.19 1006.28 1005.90 1005.79 1005.87 1005.87 1005.85 1005.92 1005.98 1005.94 1005.88 1005.75 1005.87 1006.00 1006.25 1006.46 1006.62 1006.46 1005.99 1005.58 1005.03 1004.33 1003.75 1003.36 1003.16 1002.89 1002.55
1002.73 1003.46 1003.81 1004.15 1004.17 1003.95 1004.22 1004.00 1004.32 1005.14 1005.12 1004.94 1005.17 1005.32 1005.44 1005.58 1005.85 1006.09 1006.23 1005.86 1005.45 1005.36 1005.50 1005.66 1005.85 1005.91 1005.85 1005.74 1005.66 1005.81 1006.12 1006.39 1006.58 1006.52 1006.38 1006.36 1005.67 1004.83 1004.05 1003.49 1003.46 1003.20 1003.08 1002.92
1002.77 1003.14 1003.31 1003.94 1003.81 1004.74 1004.89 1005.13 1005.35 1005.46 1005.86 1005.14 1005.18 1005.34 1005.47 1005.76 1006.36 1006.59 1006.72 1005.74 1005.30 1005.03 1005.23 1005.52 1005.85 1005.96 1005.82 1005.59 1005.64 1005.78 1006.67 1006.74 1006.70 1006.65 1006.48 1006.39 1005.53 1004.81 1004.21 1003.94 1003.52 1003.44 1003.46 1003.59
1002.84 1003.67 1003.80 1004.39 1004.18 1004.44 1004.48 1004.70 1005.09 1005.97 1006.52 1006.15 1005.56 1005.63 1005.76 1005.85 1006.60 1006.68 1006.67 1006.26 1005.38 1005.01 1004.97 1005.42 1005.67 1005.87 1005.75 1005.57 1005.88 1006.26 1006.93 1006.95 1006.73 1006.85 1006.68 1006.23 1005.28 1004.55 1004.32 1004.16 1004.03 1003.92 1004.13 1004.01
1003.12 1003.98 1004.08 1004.46 1004.65 1004.80 1005.31 1005.47 1005.78 1005.88 1006.12 1005.94 1005.62 1005.61 1005.29 1006.14 1006.63 1008.04 1006.92 1006.25 1006.95 1005.52 1004.88 1005.21 1005.70 1005.88 1005.75 1005.50 1006.12 1006.06 1006.27 1006.99 1006.83 1006.82 1006.66 1006.18 1004.81 1004.02 1003.97 1004.33 1004.75 1004.67 1004.93 1004.93
1003.51 1003.68 1003.90 1003.89 1004.46 1004.77 1005.22 1005.32 1005.55 1005.74 1005.72 1005.51 1005.51 1005.29 1005.42 1005.71 1006.29 1005.77 1006.00 1006.14 1005.40 1005.45 1004.98 1005.25 1005.80 1006.05 1006.20 1006.20 1006.45 1006.47 1006.52 1006.61 1006.80 1006.73 1006.50 1005.90 1004.76 1003.74 1003.40 1003.87 1004.70 1005.18 1005.08 1005.09
Thickness
5851 5834 5834 5864 5859 5856 5851 5846 5844 5862 5868 5853 5854 5849 5852 5864 5864 5851 5852 5855 5856 5857 5861 5857 5852 5848 5842 5834 5826 5819 5811 5806 5801 5796 5791 5790 5788 5790 5790 5792 5790 5783 5777 5773
5843 5831 5861 5863 5856 5847 5845 5838 5844 5862 5865 5853 5856 5852 5858 5859 5855 5853 5847 5848 5847 5848 5843 5842 5841 5840 5836 5829 5822 5815 5811 5806 5802 5799 5797 5796 5794 5795 5794 5795 5796 5791 5783 5777
5833 5852 5861 5849 5845 5839 5843 5836 5845 5841 5856 5861 5851 5841 5846 5853 5856 5851 5844 5841 5840 5836 5832 5831 5831 5830 5831 5824 5819 5812 5808 5806 5802 5801 5798 5795 5795 5795 5793 5793 5792 5798 5792 5784
5845 5860 5845 5840 5840 5846 5834 5854 5845 5838 5832 5820 5860 5812 5843 5847 5843 5843 5836 5834 5830 5824 5825 5825 5825 5825 5824 5823 5821 5815 5809 5804 5802 5798 5796 5793 5789 5785 5792 5794 5796 5799 5803 5796
5840 5842 5838 5833 5839 5844 5830 5847 5841 5839 5829 5831 5841 5833 5836 5854 5839 5842 5838 5831 5828 5827 5821 5816 5816 5816 5818 5817 5818 5813 5809 5804 5800 5798 5792 5793 5788 5788 5788 5793 5796 5797 5796 5794
5843 5863 5847 5842 5849 5844 5847 5836 5839 5840 5835 5811 5840 5842 5825 5831 5838 5837 5834 5827 5824 5821 5817 5812 5810 5809 5808 5808 5808 5807 5803 5800 5799 5797 5791 5788 5787 5783 5782 5789 5792 5792 5790 5787
5839 5841 5853 5849 5829 5844 5837 5822 5801 5806 5804 5802 5843 5829 5828 5841 5844 5839 5829 5824 5821 5820 5815 5810 5805 5801 5798 5797 5797 5797 5794 5791 5795 5794 5791 5788 5786 5784 5784 5786 5793 5786 5781 5787
5820 5819 5843 5848 5831 5821 5826 5818 5789 5766 5789 5805 5838 5811 5826 5845 5845 5841 5837 5830 5822 5817 5808 5806 5803 5798 5794 5792 5791 5790 5787 5783 5784 5785 5787 5785 5785 5784 5784 5785 5788 5786 5782 5783
5812 5822 5848 5841 5841 5831 5814 5798 5828 5798 5809 5795 5821 5832 5833 5838 5829 5827 5823 5820 5812 5806 5802 5798 5797 5795 5793 5788 5787 5784 5781 5778 5777 5778 5778 5779 5780 5779 5781 5783 5782 5786 5786 5783
5822 5796 5837 5835 5831 5830 5816 5823 5786 5798 5766 5766 5811 5808 5793 5806 5812 5814 5806 5804 5799 5798 5796 5793 5789 5787 5787 5786 5784 5782 5779 5773 5771 5770 5770 5771 5775 5774 5775 5776 5779 5781 5784 5787
5824 5811 5813 5823 5808 5802 5805 5796 5800 5805 5797 5767 5766 5794 5820 5807 5809 5802 5801 5800 5792 5788 5784 5782 5781 5780 5777 5777 5776 5773 5769 5765 5762 5761 5759 5759 5763 5766 5766 5767 5773 5774 5777 5781
5817 5809 5789 5802 5836 5832 5819 5802 5797 5767 5762 5789 5779 5783 5823 5812 5808 5804 5798 5794 5790 5786 5779 5772 5770 5768 5765 5762 5759 5757 5758 5754 5752 5752 5750 5751 5752 5754 5756 5758 5763 5766 5769 5775
5804 5789 5768 5781 5808 5823 5799 5795 5795 5791 5784 5762 5748 5765 5825 5812 5804 5796 5788 5787 5780 5773 5769 5764 5759 5755 5755 5752 5748 5745 5744 5745 5743 5743 5742 5742 5743 5740 5743 5746 5754 5760 5763 5769
5791 5777 5762 5754 5778 5789 5779 5787 5790 5781 5758 5761 5767 5779 5794 5793 5784 5782 5776 5773 5767 5762 5757 5752 5749 5745 5745 5743 5739 5735 5732 5732 5729 5726 5724 5727 5729 5730 5732 5735 5741 5749 5756 5761
5776 5750 5762 5773 5782 5785 5780 5779 5780 5771 5772 5754 5767 5764 5777 5777 5771 5769 5769 5764 5758 5754 5747 5742 5737 5733 5732 5730 5729 5726 5723 5721 5717 5715 5716 5714 5718 5721 5722 5725 5730 5737 5744 5755
5775 5749 5755 5748 5764 5767 5762 5773 5772 5770 5769 5766 5763 5758 5780 5772 5769 5758 5754 5750 5743 5739 5736 5733 5726 5722 5718 5716 5715 5713 5711 5708 5704 5703 5705 5705 5708 5712 5713 5715 5720 5726 5735 5744
5751 5747 5737 5726 5750 5747 5735 5759 5765 5767 5772 5765 5746 5758 5767 5751 5745 5741 5739 5735 5731 5729 5726 5721 5716 5711 5708 5707 5707 5704 5700 5697 5695 5695 5698 5699 5699 5703 5704 5708 5712 5717 5726 5736
5742 5730 5726 5715 5724 5695 5748 5775 5772 5762 5762 5764 5755 5752 5756 5744 5743 5740 5734 5724 5720 5716 5712 5708 5706 5703 5702 5702 5701 5698 5693 5687 5687 5689 5690 5690 5691 5693 5696 5700 5705 5709 5717 5725
5751 5733 5717 5704 5707 5726 5742 5758 5748 5739 5739 5751 5738 5742 5743 5741 5734 5721 5723 5719 5712 5709 5706 5701 5699 5697 5695 5691 5691 5687 5684 5681 5680 5679 5680 5678 5680 5685 5690 5692 5700 5705 5708 5716
5743 5735 5712 5706 5689 5685 5731 5753 5749 5740 5709 5733 5729 5723 5721 5717 5696 5705 5708 5711 5707 5704 5699 5693 5692 5689 5686 5685 5683 5679 5676 5673 5668 5667 5666 5666 5666 5672 5683 5690 5695 5699 5704 5711
5716 5710 5696 5696 5691 5705 5735 5745 5737 5689 5696 5718 5717 5710 5705 5695 5691 5699 5698 5695 5699 5696 5691 5689 5686 5678 5675 5676 5674 5670 5667 5663 5662 5659 5656 5658 5661 5667 5677 5684 5690 5695 5701 5707
5712 5698 5696 5698 5688 5681 5718 5719 5695 5694 5705 5709 5706 5703 5697 5697 5696 5694 5691 5689 5689 5687 5684 5682 5675 5670 5669 5668 5666 5661 5657 5656 5654 5653 5649 5647 5656 5665 5673 5679 5682 5688 5690 5692
5698 5711 5702 5701 5698 5705 5707 5701 5703 5702 5693 5697 5693 5694 5694 5688 5677 5674 5668 5679 5681 5680 5676 5672 5665 5660 5660 5661 5657 5652 5645 5644 5643 5641 5641 5641 5651 5659 5667 5670 5676 5678 5680 5679
5712 5707 5694 5682 5701 5700 5704 5702 5698 5681 5680 5681 5687 5686 5683 5677 5667 5663 5661 5664 5670 5672 5669 5663 5658 5651 5650 5651 5647 5643 5636 5634 5634 5632 5634 5639 5647 5656 5661 5665 5669 5670 5670 5670
5703 5689 5685 5680 5686 5684 5680 5678 5675 5676 5677 5675 5676 5675 5675 5665 5655 5633 5650 5654 5642 5656 5664 5658 5648 5644 5643 5644 5635 5635 5636 5627 5626 5625 5629 5634 5648 5655 5659 5658 5658 5663 5659 5661
5692 5679 5672 5670 5677 5670 5667 5674 5676 5667 5666 5667 5664 5666 5667 5659 5657 5661 5653 5647 5654 5651 5656 5648 5641 5637 5633 5633 5630 5629 5626 5623 5619 5619 5625 5631 5643 5655 5660 5658 5656 5649 5653 5653